Weather History for Aitkin, MN

Change the Weather History Date:

Monday, December 24, 2012

  Actual Average Record
Temperature  
Mean Temperature 4 °F -  
Max Temperature 12 °F 18 °F 39 °F (1963)
Min Temperature -4 °F 0 °F -33 °F (1983)
Degree Days  
Heating Degree Days 61    
Moisture  
Dew Point -3 °F    
Average Humidity 69    
Maximum Humidity 79    
Minimum Humidity 56    
Precipitation  
Precipitation 0.00 in - - ()
Sea Level Pressure  
Sea Level Pressure 30.12 in    
Wind  
Wind Speed 4 mph (NNW)    
Max Wind Speed 10 mph    
Max Gust Speed -    
Visibility 9 miles    
Events Snow    
Averages and records for this station are not official NWS values.
T = Trace of Precipitation, MM = Missing Value Source: NWS Daily Summary

Daily Weather History Graph

Daily Weather History Graph

Search for Another Location

Airport:

Trip Planner

Search our weather history database for the weather conditions in past years. The results will help you decide how hot, cold, wet, or windy it might be!

Date:

Astronomy

Dec. 24, 2012 Rise Set
Actual Time 7:57 AM CST 4:31 PM CST
Civil Twilight 7:22 AM CST 5:07 PM CST
Nautical Twilight 6:43 AM CST 5:45 PM CST
Astronomical Twilight 6:06 AM CST 6:22 PM CST
Moon 2:03 PM CST (12/24) 4:31 AM CST (12/24)
Length of Visible Light 9h 44m
Length of Day
8h 34m
Waxing Gibbous, 88% of the Moon is Illuminated
Dec 24
Waxing Gibbous
Dec 28
Full
Jan 4
Last Quarter
Jan 11
New
Jan 18
First Quarter

Hourly Weather History & Observations

Time (CST) Temp. Windchill Dew Point Humidity Pressure Visibility Wind Dir Wind Speed Gust Speed Precip Events Conditions
12:13 AM 12.2 °F - 6.8 °F 79% 30.02 in 1.8 mi Calm Calm - N/A Snow Light Snow
12:32 AM 12.2 °F - 6.8 °F 79% 30.02 in 3.0 mi Calm Calm - N/A Snow Light Snow
12:53 AM 12.2 °F - 6.8 °F 79% 30.01 in 4.0 mi Calm Calm - N/A Snow Light Snow
1:13 AM 12.2 °F 6.1 °F 6.8 °F 79% 30.01 in 5.0 mi NW 3.5 mph - N/A Snow Light Snow
1:32 AM 12.2 °F 4.3 °F 6.8 °F 79% 30.01 in 5.0 mi NNW 4.6 mph - N/A Snow Light Snow
1:53 AM 12.2 °F 1.7 °F 5.0 °F 73% 30.01 in 4.0 mi NNW 6.9 mph - N/A Snow Light Snow
2:12 AM 12.2 °F - 5.0 °F 73% 30.02 in 4.0 mi Calm Calm - N/A Snow Light Snow
2:32 AM 12.2 °F 4.3 °F 5.0 °F 73% 30.03 in 5.0 mi NNW 4.6 mph - N/A Snow Light Snow
2:53 AM 12.2 °F 4.3 °F 5.0 °F 73% 30.03 in 5.0 mi NNW 4.6 mph - N/A Snow Light Snow
3:12 AM 12.2 °F 0.7 °F 3.2 °F 67% 30.03 in 4.0 mi NNW 8.1 mph - N/A Snow Light Snow
3:53 AM 10.4 °F -3.3 °F 3.2 °F 73% 30.02 in 3.0 mi NNW 10.4 mph - N/A Snow Light Snow
4:12 AM 10.4 °F 2.2 °F 3.2 °F 73% 30.03 in 4.0 mi NNW 4.6 mph - N/A Snow Light Snow
4:32 AM 8.6 °F -2.6 °F 1.4 °F 73% 30.03 in 5.0 mi NNW 6.9 mph - N/A Snow Light Snow
4:53 AM 8.6 °F -2.6 °F 1.4 °F 73% 30.03 in 10.0 mi NNW 6.9 mph - N/A   Mostly Cloudy
5:12 AM 8.6 °F 0.1 °F 1.4 °F 73% 30.03 in 4.0 mi NNW 4.6 mph - N/A Snow Light Snow
5:32 AM 8.6 °F 0.1 °F 1.4 °F 73% 30.03 in 5.0 mi NNW 4.6 mph - N/A Snow Light Snow
5:53 AM 8.6 °F -2.6 °F -0.4 °F 67% 30.04 in 7.0 mi NNW 6.9 mph - N/A Snow Light Snow
6:12 AM 6.8 °F -4.8 °F -0.4 °F 72% 30.05 in 10.0 mi NNW 6.9 mph - N/A Snow Light Snow
6:32 AM 6.8 °F -4.8 °F -2.2 °F 67% 30.05 in 10.0 mi NNW 6.9 mph - N/A   Overcast
6:53 AM 5.0 °F -5.6 °F -2.2 °F 72% 30.05 in 10.0 mi North 5.8 mph - N/A   Scattered Clouds
7:12 AM 3.2 °F -7.8 °F -4.0 °F 72% 30.05 in 10.0 mi North 5.8 mph - N/A   Clear
7:53 AM 3.2 °F - -4.0 °F 72% 30.06 in 10.0 mi Calm Calm - N/A   Clear
8:12 AM 3.2 °F -7.8 °F -5.8 °F 66% 30.06 in 10.0 mi NW 5.8 mph - N/A   Clear
8:32 AM 3.2 °F -6.2 °F -5.8 °F 66% 30.07 in 10.0 mi NW 4.6 mph - N/A   Clear
8:53 AM 1.4 °F -11.3 °F -5.8 °F 72% 30.07 in 10.0 mi NNW 6.9 mph - N/A   Clear
9:12 AM 3.2 °F -4.2 °F -5.8 °F 66% 30.07 in 10.0 mi NNW 3.5 mph - N/A   Clear
9:32 AM 1.4 °F -9.9 °F -5.8 °F 72% 30.07 in 10.0 mi NNW 5.8 mph - N/A   Clear
9:53 AM 3.2 °F -10.3 °F -5.8 °F 66% 30.08 in 10.0 mi NNW 8.1 mph - N/A   Clear
10:12 AM 3.2 °F -10.3 °F -5.8 °F 66% 30.09 in 10.0 mi North 8.1 mph - N/A   Clear
10:32 AM 3.2 °F -9.1 °F -5.8 °F 66% 30.10 in 10.0 mi NNW 6.9 mph - N/A   Clear
10:53 AM 5.0 °F -6.9 °F -5.8 °F 61% 30.11 in 10.0 mi NW 6.9 mph - N/A   Clear
11:12 AM 6.8 °F -2.0 °F -5.8 °F 56% 30.12 in 10.0 mi WNW 4.6 mph - N/A   Clear
11:32 AM 6.8 °F -4.8 °F -5.8 °F 56% 30.12 in 10.0 mi WNW 6.9 mph - N/A   Clear
11:52 AM 6.8 °F -3.5 °F -5.8 °F 56% 30.12 in 10.0 mi NW 5.8 mph - N/A   Clear
12:12 PM 6.8 °F -3.5 °F -5.8 °F 56% 30.11 in 10.0 mi NW 5.8 mph - N/A   Clear
12:33 PM 6.8 °F -3.5 °F -5.8 °F 56% 30.12 in 10.0 mi WNW 5.8 mph - N/A   Clear
12:52 PM 6.8 °F -3.5 °F -4.0 °F 61% 30.12 in 10.0 mi NW 5.8 mph - N/A   Clear
1:12 PM 6.8 °F -4.8 °F -4.0 °F 61% 30.12 in 10.0 mi NW 6.9 mph - N/A   Clear
1:33 PM 6.8 °F -5.9 °F -4.0 °F 61% 30.11 in 10.0 mi NNW 8.1 mph - N/A   Clear
1:52 PM 6.8 °F -6.9 °F -4.0 °F 61% 30.11 in 10.0 mi NNW 9.2 mph - N/A   Clear
2:12 PM 6.8 °F -4.8 °F -2.2 °F 67% 30.10 in 10.0 mi NNW 6.9 mph - N/A   Clear
2:33 PM 6.8 °F -4.8 °F -2.2 °F 67% 30.11 in 10.0 mi NNW 6.9 mph - N/A   Clear
2:52 PM 6.8 °F -3.5 °F -2.2 °F 67% 30.12 in 10.0 mi NNW 5.8 mph - N/A   Clear
3:12 PM 6.8 °F -3.5 °F -2.2 °F 67% 30.12 in 10.0 mi NNW 5.8 mph - N/A   Clear
3:33 PM 6.8 °F -5.9 °F -2.2 °F 67% 30.12 in 10.0 mi NNW 8.1 mph - N/A   Clear
3:52 PM 6.8 °F -6.9 °F -2.2 °F 67% 30.13 in 10.0 mi NNW 9.2 mph - N/A   Clear
4:12 PM 6.8 °F -2.0 °F -2.2 °F 67% 30.13 in 10.0 mi NNW 4.6 mph - N/A   Clear
4:33 PM 6.8 °F - -2.2 °F 67% 30.14 in 10.0 mi Calm Calm - N/A   Clear
4:52 PM 6.8 °F -2.0 °F -2.2 °F 67% 30.15 in 10.0 mi NW 4.6 mph - N/A   Clear
5:12 PM 5.0 °F - -2.2 °F 72% 30.15 in 10.0 mi Calm Calm - N/A   Clear
5:33 PM 5.0 °F - -4.0 °F 66% 30.16 in 10.0 mi Calm Calm - N/A   Clear
5:52 PM 3.2 °F - -4.0 °F 72% 30.16 in 10.0 mi Calm Calm - N/A   Clear
6:12 PM 3.2 °F - -5.8 °F 66% 30.17 in 10.0 mi Calm Calm - N/A   Clear
6:33 PM 1.4 °F - -5.8 °F 72% 30.18 in 10.0 mi Calm Calm - N/A   Clear
6:52 PM 1.4 °F -6.2 °F -5.8 °F 72% 30.19 in 10.0 mi WNW 3.5 mph - N/A   Clear
7:12 PM 1.4 °F - -5.8 °F 72% 30.19 in 10.0 mi Calm Calm - N/A   Clear
7:33 PM 1.4 °F - -5.8 °F 72% 30.20 in 10.0 mi Calm Calm - N/A   Clear
7:53 PM 1.4 °F - -5.8 °F 72% 30.21 in 10.0 mi Calm Calm - N/A   Clear
8:12 PM 1.4 °F -6.2 °F -5.8 °F 72% 30.21 in 10.0 mi WNW 3.5 mph - N/A   Clear
8:33 PM 1.4 °F - -5.8 °F 72% 30.22 in 10.0 mi Calm Calm - N/A   Clear
8:53 PM -0.4 °F -8.3 °F -5.8 °F 78% 30.23 in 10.0 mi NW 3.5 mph - N/A   Clear
9:12 PM -0.4 °F - -7.6 °F 72% 30.24 in 10.0 mi Calm Calm - N/A   Clear
9:33 PM -2.2 °F - -9.4 °F 71% 30.24 in 10.0 mi Calm Calm - N/A   Clear
9:52 PM -4.0 °F - -11.2 °F 71% 30.25 in 10.0 mi Calm Calm - N/A   Clear
10:13 PM -4.0 °F - -11.2 °F 71% 30.26 in 10.0 mi Calm Calm - N/A   Clear
10:33 PM -2.2 °F - -9.4 °F 71% 30.26 in 10.0 mi Calm Calm - N/A   Clear
10:52 PM -2.2 °F -10.4 °F -9.4 °F 71% 30.27 in 10.0 mi WNW 3.5 mph - N/A   Clear
11:13 PM -2.2 °F - -9.4 °F 71% 30.27 in 10.0 mi Calm Calm - N/A   Clear
11:33 PM -2.2 °F - -9.4 °F 71% 30.27 in 10.0 mi Calm Calm - N/A   Clear
11:52 PM -2.2 °F - -9.4 °F 71% 30.27 in 10.0 mi Calm Calm - N/A   Clear